| time (UTC) | temp F | wind direction | speed MPH | gust MPH | rain 1hr in | rain 24hr in | rain mn in | humidity % | barometer mb |
| 20260831112003 | 93 | 281 | 3.0 | 8.0 | 0.00 | 0.00 | 0.00 | 33 | 1016.0 |
| 20260831111503 | 94 | 290 | 4.0 | 8.0 | 0.00 | 0.00 | 0.00 | 33 | 1016.0 |
| 20260831111004 | 94 | 283 | 3.0 | 8.0 | 0.00 | 0.00 | 0.00 | 33 | 1016.1 |
| 20260831110503 | 93 | 254 | 2.0 | 9.0 | 0.00 | 0.00 | 0.00 | 34 | 1016.0 |
| 20260831110003 | 93 | 290 | 2.0 | 9.0 | 0.00 | 0.00 | 0.00 | 35 | 1016.2 |
| 20260831105503 | 93 | 316 | 3.0 | 8.0 | 0.00 | 0.00 | 0.00 | 34 | 1016.2 |
| 20260831105004 | 94 | 312 | 4.0 | 8.0 | 0.00 | 0.00 | 0.00 | 33 | 1016.2 |
| 20260831104504 | 94 | 325 | 2.0 | 11.0 | 0.00 | 0.00 | 0.00 | 32 | 1016.2 |
| 20260831104003 | 94 | 315 | 2.0 | 11.0 | 0.00 | 0.00 | 0.00 | 34 | 1016.2 |
| 20260831103503 | 93 | 266 | 2.0 | 11.0 | 0.00 | 0.00 | 0.00 | 35 | 1016.2 |
| 20260831103004 | 92 | 252 | 2.0 | 11.0 | 0.00 | 0.00 | 0.00 | 36 | 1016.2 |
| 20260831102503 | 93 | 231 | 2.0 | 8.0 | 0.00 | 0.00 | 0.00 | 34 | 1016.2 |
| 20260831102003 | 94 | 285 | 2.0 | 9.0 | 0.00 | 0.00 | 0.00 | 34 | 1016.2 |
| 20260831101503 | 94 | 304 | 3.0 | 9.0 | 0.00 | 0.00 | 0.00 | 34 | 1016.2 |
| 20260831101004 | 94 | 107 | 2.0 | 9.0 | 0.00 | 0.00 | 0.00 | 34 | 1016.4 |
| 20260831100504 | 93 | 142 | 2.0 | 9.0 | 0.00 | 0.00 | 0.00 | 35 | 1016.4 |
| 20260831100003 | 93 | 265 | 2.0 | 7.0 | 0.00 | 0.00 | 0.00 | 35 | 1016.5 |
| 20260831095503 | 93 | 263 | 2.0 | 8.0 | 0.00 | 0.00 | 0.00 | 36 | 1016.5 |
| 20260831095003 | 93 | 224 | 2.0 | 8.0 | 0.00 | 0.00 | 0.00 | 36 | 1016.6 |
| 20260831094504 | 93 | 222 | 2.0 | 8.0 | 0.00 | 0.00 | 0.00 | 37 | 1016.7 |
| 20260831094003 | 93 | 301 | 1.0 | 7.0 | 0.00 | 0.00 | 0.00 | 40 | 1016.7 |
| 20260831093503 | 91 | 0 | 0.0 | 8.0 | 0.00 | 0.00 | 0.00 | 43 | 1016.7 |
| 20260831093004 | 91 | 250 | 4.0 | 8.0 | 0.00 | 0.00 | 0.00 | 42 | 1016.8 |
| 20260831092503 | 91 | 253 | 2.0 | 8.0 | 0.00 | 0.00 | 0.00 | 43 | 1016.8 |
| 20260831092004 | 91 | 256 | 1.0 | 11.0 | 0.00 | 0.00 | 0.00 | 44 | 1016.8 |
| 20260831091504 | 91 | 257 | 4.0 | 11.0 | 0.00 | 0.00 | 0.00 | 43 | 1016.8 |
| 20260831091003 | 92 | 262 | 4.0 | 8.0 | 0.00 | 0.00 | 0.00 | 41 | 1016.8 |
| 20260831090503 | 91 | 277 | 4.0 | 8.0 | 0.00 | 0.00 | 0.00 | 41 | 1016.9 |
| 20260831090003 | 92 | 297 | 4.0 | 9.0 | 0.00 | 0.00 | 0.00 | 39 | 1016.9 |
| 20260831085504 | 92 | 314 | 2.0 | 9.0 | 0.00 | 0.00 | 0.00 | 40 | 1016.9 |
| 20260831085003 | 92 | 290 | 3.0 | 6.0 | 0.00 | 0.00 | 0.00 | 38 | 1016.9 |
| 20260831084503 | 91 | 222 | 2.0 | 8.0 | 0.00 | 0.00 | 0.00 | 40 | 1016.9 |
| 20260831084003 | 91 | 239 | 2.0 | 8.0 | 0.00 | 0.00 | 0.00 | 39 | 1017.0 |
| 20260831083504 | 90 | 259 | 2.0 | 8.0 | 0.00 | 0.00 | 0.00 | 39 | 1017.0 |
| 20260831083003 | 90 | 238 | 3.0 | 8.0 | 0.00 | 0.00 | 0.00 | 39 | 1016.9 |
| 20260831082503 | 91 | 127 | 4.0 | 8.0 | 0.00 | 0.00 | 0.00 | 38 | 1016.9 |
| 20260831082004 | 90 | 136 | 2.0 | 8.0 | 0.00 | 0.00 | 0.00 | 37 | 1016.9 |
| 20260831081503 | 90 | 230 | 2.0 | 8.0 | 0.00 | 0.00 | 0.00 | 38 | 1017.0 |
| 20260831081003 | 90 | 204 | 2.0 | 7.0 | 0.00 | 0.00 | 0.00 | 38 | 1016.9 |
| 20260831080504 | 90 | 142 | 1.0 | 5.0 | 0.00 | 0.00 | 0.00 | 38 | 1016.9 |
| 20260831080003 | 90 | 148 | 1.0 | 5.0 | 0.00 | 0.00 | 0.00 | 38 | 1017.0 |
| 20260831075504 | 90 | 139 | 2.0 | 8.0 | 0.00 | 0.00 | 0.00 | 40 | 1017.0 |
| 20260831075003 | 89 | 0 | 0.0 | 8.0 | 0.00 | 0.00 | 0.00 | 41 | 1017.0 |
| 20260831074503 | 88 | 0 | 0.0 | 5.0 | 0.00 | 0.00 | 0.00 | 42 | 1017.0 |
| 20260831074004 | 88 | 295 | 3.0 | 5.0 | 0.00 | 0.00 | 0.00 | 43 | 1017.0 |
| 20260831073504 | 87 | 192 | 2.0 | 5.0 | 0.00 | 0.00 | 0.00 | 44 | 1016.9 |
| 20260831073003 | 87 | 138 | 3.0 | 5.0 | 0.00 | 0.00 | 0.00 | 43 | 1017.0 |
| 20260831072503 | 86 | 131 | 1.0 | 6.0 | 0.00 | 0.00 | 0.00 | 43 | 1016.7 |
| 20260831072004 | 86 | 139 | 2.0 | 6.0 | 0.00 | 0.00 | 0.00 | 42 | 1016.9 |
| 20260831071503 | 86 | 153 | 3.0 | 6.0 | 0.00 | 0.00 | 0.00 | 43 | 1016.9 |
| 20260831071003 | 86 | 145 | 3.0 | 6.0 | 0.00 | 0.00 | 0.00 | 43 | 1016.8 |
| 20260831070503 | 86 | 0 | 0.0 | 5.0 | 0.00 | 0.00 | 0.00 | 44 | 1017.0 |
| 20260831070004 | 86 | 138 | 1.0 | 5.0 | 0.00 | 0.00 | 0.00 | 45 | 1017.0 |
| 20260831065504 | 86 | 135 | 2.0 | 4.0 | 0.00 | 0.00 | 0.00 | 46 | 1016.9 |
| 20260831065003 | 85 | 53 | 2.0 | 4.0 | 0.00 | 0.00 | 0.00 | 47 | 1016.9 |
| 20260831064503 | 84 | 0 | 0.0 | 3.0 | 0.00 | 0.00 | 0.00 | 48 | 1016.8 |
| 20260831064004 | 84 | 0 | 0.0 | 4.0 | 0.00 | 0.00 | 0.00 | 48 | 1016.9 |
| 20260831063503 | 84 | 155 | 2.0 | 5.0 | 0.00 | 0.00 | 0.00 | 49 | 1016.9 |
| 20260831063003 | 83 | 142 | 1.0 | 7.0 | 0.00 | 0.00 | 0.00 | 50 | 1016.9 |
| 20260831062503 | 83 | 140 | 2.0 | 7.0 | 0.00 | 0.00 | 0.00 | 50 | 1016.8 |
| 20260831062004 | 83 | 112 | 2.0 | 8.0 | 0.00 | 0.00 | 0.00 | 53 | 1016.9 |
| 20260831061503 | 83 | 129 | 2.0 | 8.0 | 0.00 | 0.00 | 0.00 | 55 | 1016.9 |
| 20260831061004 | 83 | 139 | 2.0 | 8.0 | 0.00 | 0.00 | 0.00 | 56 | 1016.9 |
| 20260831060503 | 83 | 135 | 2.0 | 8.0 | 0.00 | 0.00 | 0.00 | 55 | 1016.9 |
| 20260831060003 | 83 | 134 | 3.0 | 8.0 | 0.00 | 0.00 | 0.00 | 54 | 1016.9 |
| 20260831055503 | 83 | 139 | 3.0 | 8.0 | 0.00 | 0.00 | 0.00 | 53 | 1016.9 |
| 20260831055003 | 83 | 147 | 4.0 | 8.0 | 0.00 | 0.00 | 0.00 | 52 | 1016.7 |
| 20260831054504 | 83 | 139 | 2.0 | 4.0 | 0.00 | 0.00 | 0.00 | 51 | 1016.7 |
| 20260831054004 | 83 | 151 | 2.0 | 4.0 | 0.00 | 0.00 | 0.00 | 50 | 1016.6 |
| 20260831053503 | 83 | 155 | 2.0 | 4.0 | 0.00 | 0.00 | 0.00 | 49 | 1016.6 |
| 20260831053003 | 83 | 135 | 2.0 | 4.0 | 0.00 | 0.00 | 0.00 | 49 | 1016.6 |
| 20260831052503 | 83 | 126 | 2.0 | 4.0 | 0.00 | 0.00 | 0.00 | 48 | 1016.5 |
| 20260831052004 | 83 | 118 | 2.0 | 3.0 | 0.00 | 0.00 | 0.00 | 47 | 1016.5 |
| 20260831051503 | 83 | 0 | 0.0 | 2.0 | 0.00 | 0.00 | 0.00 | 47 | 1016.4 |
| 20260831051003 | 82 | 0 | 0.0 | 2.0 | 0.00 | 0.00 | 0.00 | 47 | 1016.5 |
| 20260831050503 | 82 | 0 | 0.0 | 1.0 | 0.00 | 0.00 | 0.00 | 47 | 1016.4 |
| 20260831050004 | 82 | 0 | 0.0 | 2.0 | 0.00 | 0.00 | 0.00 | 48 | 1016.3 |
| 20260831045503 | 81 | 0 | 0.0 | 2.0 | 0.00 | 0.00 | 0.00 | 48 | 1016.3 |
| 20260831045004 | 81 | 39 | 1.0 | 2.0 | 0.00 | 0.00 | 0.00 | 48 | 1016.3 |
| 20260831044503 | 80 | 0 | 0.0 | 2.0 | 0.00 | 0.00 | 0.00 | 48 | 1016.2 |
| 20260831044004 | 80 | 60 | 1.0 | 2.0 | 0.00 | 0.00 | 0.00 | 48 | 1016.3 |
| 20260831043503 | 80 | 0 | 0.0 | 2.0 | 0.00 | 0.00 | 0.00 | 50 | 1016.3 |
| 20260831043004 | 79 | 0 | 0.0 | 2.0 | 0.00 | 0.00 | 0.00 | 52 | 1016.2 |
| 20260831042503 | 79 | 0 | 0.0 | 2.0 | 0.00 | 0.00 | 0.00 | 54 | 1016.2 |
| 20260831042004 | 79 | 0 | 0.0 | 3.0 | 0.00 | 0.00 | 0.00 | 55 | 1016.2 |
| 20260831041503 | 79 | 327 | 1.0 | 3.0 | 0.00 | 0.00 | 0.00 | 57 | 1016.2 |
| 20260831041003 | 79 | 0 | 0.0 | 3.0 | 0.00 | 0.00 | 0.00 | 57 | 1016.2 |
| 20260831040504 | 79 | 158 | 1.0 | 3.0 | 0.00 | 0.00 | 0.00 | 57 | 1016.1 |
| 20260831040004 | 79 | 0 | 0.0 | 2.0 | 0.00 | 0.00 | 0.00 | 57 | 1016.1 |
| 20260831035504 | 78 | 0 | 0.0 | 3.0 | 0.00 | 0.00 | 0.00 | 57 | 1016.0 |
| 20260831035004 | 78 | 0 | 0.0 | 3.0 | 0.00 | 0.00 | 0.00 | 57 | 1016.1 |
| 20260831034503 | 78 | 0 | 0.0 | 2.0 | 0.00 | 0.00 | 0.00 | 57 | 1016.0 |
| 20260831034004 | 78 | 58 | 1.0 | 3.0 | 0.00 | 0.00 | 0.00 | 57 | 1016.0 |
| 20260831033503 | 79 | 0 | 0.0 | 3.0 | 0.00 | 0.00 | 0.00 | 58 | 1016.0 |
| 20260831033003 | 79 | 30 | 1.0 | 3.0 | 0.00 | 0.00 | 0.00 | 58 | 1016.1 |
| 20260831032503 | 79 | 0 | 0.0 | 3.0 | 0.00 | 0.00 | 0.00 | 58 | 1016.2 |
| 20260831032004 | 79 | 0 | 0.0 | 3.0 | 0.00 | 0.00 | 0.00 | 58 | 1016.2 |
| 20260831031503 | 79 | 0 | 0.0 | 4.0 | 0.00 | 0.00 | 0.00 | 58 | 1016.2 |
| 20260831031003 | 78 | 0 | 0.0 | 4.0 | 0.00 | 0.00 | 0.00 | 57 | 1016.2 |
| 20260831030504 | 78 | 0 | 0.0 | 3.0 | 0.00 | 0.00 | 0.00 | 58 | 1016.2 |
| 20260831030004 | 78 | 103 | 1.0 | 3.0 | 0.00 | 0.00 | 0.00 | 58 | 1016.2 |
| 20260831025503 | 78 | 0 | 0.0 | 3.0 | 0.00 | 0.00 | 0.00 | 58 | 1016.2 |
| 20260831025003 | 78 | 0 | 0.0 | 4.0 | 0.00 | 0.00 | 0.00 | 57 | 1016.2 |
| 20260831024504 | 78 | 0 | 0.0 | 4.0 | 0.00 | 0.00 | 0.00 | 57 | 1016.2 |
| 20260831024004 | 78 | 28 | 1.0 | 4.0 | 0.00 | 0.00 | 0.00 | 60 | 1016.2 |
| 20260831023503 | 78 | 35 | 2.0 | 4.0 | 0.00 | 0.00 | 0.00 | 60 | 1016.3 |
| 20260831023003 | 78 | 30 | 3.0 | 4.0 | 0.00 | 0.00 | 0.00 | 60 | 1016.2 |
| 20260831022503 | 78 | 36 | 2.0 | 4.0 | 0.00 | 0.00 | 0.00 | 61 | 1016.3 |
| 20260831022004 | 78 | 0 | 0.0 | 4.0 | 0.00 | 0.00 | 0.00 | 61 | 1016.3 |
| 20260831021504 | 78 | 0 | 0.0 | 4.0 | 0.00 | 0.00 | 0.00 | 61 | 1016.4 |
| 20260831021003 | 78 | 0 | 0.0 | 4.0 | 0.00 | 0.00 | 0.00 | 61 | 1016.5 |
| 20260831020503 | 78 | 0 | 0.0 | 4.0 | 0.00 | 0.00 | 0.00 | 61 | 1016.5 |
| 20260831020004 | 78 | 6 | 1.0 | 4.0 | 0.00 | 0.00 | 0.00 | 61 | 1016.4 |
| 20260831015504 | 78 | 342 | 1.0 | 3.0 | 0.00 | 0.00 | 0.00 | 60 | 1016.4 |
| 20260831015003 | 78 | 0 | 0.0 | 3.0 | 0.00 | 0.00 | 0.00 | 60 | 1016.4 |
| 20260831014503 | 78 | 0 | 0.0 | 4.0 | 0.00 | 0.00 | 0.00 | 60 | 1016.4 |
| 20260831014003 | 79 | 0 | 0.0 | 4.0 | 0.00 | 0.00 | 0.00 | 60 | 1016.4 |
| 20260831013504 | 79 | 0 | 0.0 | 4.0 | 0.00 | 0.00 | 0.00 | 59 | 1016.5 |
| 20260831013004 | 79 | 16 | 1.0 | 4.0 | 0.00 | 0.00 | 0.00 | 59 | 1016.3 |
| 20260831012503 | 79 | 31 | 1.0 | 4.0 | 0.00 | 0.00 | 0.00 | 59 | 1016.3 |
| 20260831012003 | 79 | 34 | 2.0 | 4.0 | 0.00 | 0.00 | 0.00 | 60 | 1016.4 |
| 20260831011504 | 79 | 0 | 0.0 | 2.0 | 0.00 | 0.00 | 0.00 | 60 | 1016.2 |
| 20260831011004 | 79 | 0 | 0.0 | 3.0 | 0.00 | 0.00 | 0.00 | 60 | 1016.4 |
| 20260831010504 | 79 | 0 | 0.0 | 3.0 | 0.00 | 0.00 | 0.00 | 60 | 1016.3 |
| 20260831010003 | 79 | 26 | 1.0 | 3.0 | 0.00 | 0.00 | 0.00 | 60 | 1016.4 |
| 20260831005503 | 79 | 0 | 0.0 | 3.0 | 0.00 | 0.00 | 0.00 | 60 | 1016.5 |
| 20260831005004 | 79 | 0 | 0.0 | 4.0 | 0.00 | 0.00 | 0.00 | 59 | 1016.2 |
| 20260831004504 | 79 | 35 | 1.0 | 4.0 | 0.00 | 0.00 | 0.00 | 59 | 1016.5 |
| 20260831004003 | 79 | 89 | 2.0 | 4.0 | 0.00 | 0.00 | 0.00 | 59 | 1016.5 |
| 20260831003503 | 79 | 0 | 0.0 | 4.0 | 0.00 | 0.00 | 0.00 | 59 | 1016.5 |
| 20260831003003 | 79 | 0 | 0.0 | 4.0 | 0.00 | 0.00 | 0.00 | 59 | 1016.4 |
| 20260831002504 | 79 | 27 | 1.0 | 4.0 | 0.00 | 0.00 | 0.00 | 59 | 1016.5 |
| 20260831002004 | 79 | 0 | 0.0 | 4.0 | 0.00 | 0.00 | 0.00 | 59 | 1016.3 |
| 20260831001504 | 79 | 0 | 0.0 | 3.0 | 0.00 | 0.00 | 0.00 | 59 | 1016.3 |
| 20260831001003 | 79 | 0 | 0.0 | 2.0 | 0.00 | 0.00 | 0.00 | 59 | 1016.3 |
| 20260831000504 | 80 | 0 | 0.0 | 4.0 | 0.00 | 0.00 | 0.00 | 58 | 1016.4 |
| 20260831000004 | 80 | 0 | 0.0 | 4.0 | 0.00 | 0.00 | 0.00 | 58 | 1016.4 |
| 20260830235504 | 80 | 0 | 0.0 | 4.0 | 0.00 | 0.00 | 0.00 | 59 | 1016.5 |
| 20260830235003 | 80 | 24 | 1.0 | 4.0 | 0.00 | 0.00 | 0.00 | 58 | 1016.6 |
| 20260830234503 | 80 | 39 | 2.0 | 4.0 | 0.00 | 0.00 | 0.00 | 59 | 1016.6 |
| 20260830234003 | 80 | 0 | 0.0 | 3.0 | 0.00 | 0.00 | 0.00 | 59 | 1016.5 |
| 20260830233505 | 80 | 42 | 1.0 | 4.0 | 0.00 | 0.00 | 0.00 | 59 | 1016.4 |
| 20260830233003 | 80 | 0 | 0.0 | 4.0 | 0.00 | 0.00 | 0.00 | 59 | 1016.5 |
| 20260830232503 | 80 | 0 | 0.0 | 4.0 | 0.00 | 0.00 | 0.00 | 59 | 1016.6 |
| 20260830232003 | 80 | 0 | 0.0 | 4.0 | 0.00 | 0.00 | 0.00 | 59 | 1016.6 |
| 20260830231504 | 81 | 0 | 0.0 | 2.0 | 0.00 | 0.00 | 0.00 | 60 | 1016.7 |
| 20260830231003 | 81 | 0 | 0.0 | 2.0 | 0.00 | 0.00 | 0.00 | 60 | 1016.6 |
| 20260830230503 | 81 | 135 | 1.0 | 2.0 | 0.00 | 0.00 | 0.00 | 60 | 1016.5 |
| 20260830230004 | 81 | 135 | 1.0 | 2.0 | 0.00 | 0.00 | 0.00 | 60 | 1016.7 |
| 20260830225504 | 81 | 0 | 0.0 | 2.0 | 0.00 | 0.00 | 0.00 | 60 | 1016.7 |
| 20260830225003 | 81 | 0 | 0.0 | 1.0 | 0.00 | 0.00 | 0.00 | 60 | 1016.6 |
| 20260830224504 | 81 | 0 | 0.0 | 0.0 | 0.00 | 0.00 | 0.00 | 60 | 1016.7 |
| 20260830224003 | 81 | 0 | 0.0 | 0.0 | 0.00 | 0.00 | 0.00 | 60 | 1016.7 |
| 20260830223503 | 81 | 0 | 0.0 | 0.0 | 0.00 | 0.00 | 0.00 | 60 | 1016.7 |
| 20260830223003 | 81 | 0 | 0.0 | 2.0 | 0.00 | 0.00 | 0.00 | 60 | 1016.7 |
| 20260830222503 | 81 | 0 | 0.0 | 4.0 | 0.00 | 0.00 | 0.00 | 60 | 1016.8 |
| 20260830222004 | 81 | 0 | 0.0 | 4.0 | 0.00 | 0.00 | 0.00 | 59 | 1016.8 |
| 20260830221503 | 81 | 15 | 1.0 | 3.0 | 0.00 | 0.00 | 0.00 | 59 | 1016.6 |
| 20260830221003 | 82 | 0 | 0.0 | 3.0 | 0.00 | 0.00 | 0.00 | 59 | 1016.7 |
| 20260830220504 | 82 | 0 | 0.0 | 3.0 | 0.00 | 0.00 | 0.00 | 58 | 1016.7 |
| 20260830220003 | 82 | 0 | 0.0 | 3.0 | 0.00 | 0.00 | 0.00 | 58 | 1016.8 |
| 20260830215503 | 82 | 0 | 0.0 | 3.0 | 0.00 | 0.00 | 0.00 | 58 | 1016.9 |
| 20260830215003 | 82 | 0 | 0.0 | 4.0 | 0.00 | 0.00 | 0.00 | 58 | 1016.8 |
| 20260830214504 | 82 | 238 | 1.0 | 5.0 | 0.00 | 0.00 | 0.00 | 57 | 1016.9 |
| 20260830214003 | 82 | 244 | 2.0 | 5.0 | 0.00 | 0.00 | 0.00 | 57 | 1016.7 |
| 20260830213503 | 82 | 247 | 2.0 | 4.0 | 0.00 | 0.00 | 0.00 | 56 | 1016.7 |
| 20260830213003 | 82 | 238 | 1.0 | 5.0 | 0.00 | 0.00 | 0.00 | 55 | 1016.7 |
| 20260830212504 | 82 | 225 | 1.0 | 5.0 | 0.00 | 0.00 | 0.00 | 54 | 1016.7 |
| 20260830212003 | 82 | 250 | 1.0 | 2.0 | 0.00 | 0.00 | 0.00 | 54 | 1016.5 |
| 20260830211503 | 82 | 0 | 0.0 | 3.0 | 0.00 | 0.00 | 0.00 | 54 | 1016.5 |
| 20260830211003 | 82 | 236 | 2.0 | 3.0 | 0.00 | 0.00 | 0.00 | 54 | 1016.5 |
| 20260830210504 | 82 | 0 | 0.0 | 2.0 | 0.00 | 0.00 | 0.00 | 54 | 1016.4 |
| 20260830210004 | 82 | 0 | 0.0 | 2.0 | 0.00 | 0.00 | 0.00 | 54 | 1016.4 |
| 20260830205503 | 82 | 0 | 0.0 | 3.0 | 0.00 | 0.00 | 0.00 | 54 | 1016.4 |
| 20260830205003 | 82 | 195 | 1.0 | 3.0 | 0.00 | 0.00 | 0.00 | 54 | 1016.2 |
| 20260830204503 | 82 | 0 | 0.0 | 4.0 | 0.00 | 0.00 | 0.00 | 54 | 1016.3 |
| 20260830204004 | 82 | 31 | 1.0 | 4.0 | 0.00 | 0.00 | 0.00 | 54 | 1016.3 |
| 20260830203504 | 82 | 39 | 1.0 | 3.0 | 0.00 | 0.00 | 0.00 | 54 | 1016.4 |
| 20260830203003 | 82 | 0 | 0.0 | 3.0 | 0.00 | 0.00 | 0.00 | 54 | 1016.3 |
| 20260830202503 | 82 | 0 | 0.0 | 2.0 | 0.00 | 0.00 | 0.00 | 55 | 1016.3 |
| 20260830202004 | 82 | 0 | 0.0 | 2.0 | 0.00 | 0.00 | 0.00 | 55 | 1016.3 |
| 20260830201503 | 82 | 0 | 0.0 | 2.0 | 0.00 | 0.00 | 0.00 | 55 | 1016.2 |
| 20260830201003 | 82 | 0 | 0.0 | 2.0 | 0.00 | 0.00 | 0.00 | 55 | 1016.2 |
| 20260830200504 | 82 | 0 | 0.0 | 4.0 | 0.00 | 0.00 | 0.00 | 55 | 1016.2 |
| 20260830200003 | 82 | 0 | 0.0 | 5.0 | 0.00 | 0.00 | 0.00 | 55 | 1016.2 |
| 20260830195504 | 82 | 139 | 2.0 | 6.0 | 0.00 | 0.00 | 0.00 | 56 | 1016.3 |
| 20260830195003 | 82 | 140 | 3.0 | 6.0 | 0.00 | 0.00 | 0.00 | 55 | 1016.3 |
| 20260830194503 | 82 | 135 | 2.0 | 7.0 | 0.00 | 0.00 | 0.00 | 56 | 1016.3 |
| 20260830194003 | 82 | 135 | 2.0 | 7.0 | 0.00 | 0.00 | 0.00 | 56 | 1016.4 |
| 20260830193504 | 82 | 135 | 3.0 | 7.0 | 0.00 | 0.00 | 0.00 | 56 | 1016.4 |
| 20260830193004 | 82 | 138 | 3.0 | 8.0 | 0.00 | 0.00 | 0.00 | 55 | 1016.4 |
| 20260830192503 | 82 | 142 | 4.0 | 8.0 | 0.00 | 0.00 | 0.00 | 55 | 1016.3 |
| 20260830192003 | 83 | 144 | 4.0 | 6.0 | 0.00 | 0.00 | 0.00 | 55 | 1016.2 |
| 20260830191503 | 83 | 138 | 3.0 | 8.0 | 0.00 | 0.00 | 0.00 | 55 | 1016.3 |
| 20260830191004 | 83 | 138 | 2.0 | 8.0 | 0.00 | 0.00 | 0.00 | 55 | 1016.2 |
| 20260830190504 | 83 | 142 | 3.0 | 6.0 | 0.00 | 0.00 | 0.00 | 55 | 1016.2 |
| 20260830190003 | 83 | 149 | 2.0 | 6.0 | 0.00 | 0.00 | 0.00 | 55 | 1016.3 |
| 20260830185503 | 83 | 147 | 2.0 | 8.0 | 0.00 | 0.00 | 0.00 | 55 | 1016.2 |
| 20260830185003 | 83 | 141 | 3.0 | 8.0 | 0.00 | 0.00 | 0.00 | 55 | 1016.1 |
| 20260830184503 | 83 | 147 | 2.0 | 7.0 | 0.00 | 0.00 | 0.00 | 55 | 1016.1 |
| 20260830184004 | 83 | 152 | 3.0 | 8.0 | 0.00 | 0.00 | 0.00 | 55 | 1016.1 |
| 20260830183503 | 83 | 155 | 4.0 | 8.0 | 0.00 | 0.00 | 0.00 | 55 | 1015.9 |
| 20260830183003 | 83 | 154 | 3.0 | 6.0 | 0.00 | 0.00 | 0.00 | 55 | 1015.9 |
| 20260830182503 | 83 | 0 | 0.0 | 8.0 | 0.00 | 0.00 | 0.00 | 54 | 1015.9 |
| 20260830182004 | 83 | 140 | 2.0 | 8.0 | 0.00 | 0.00 | 0.00 | 54 | 1015.8 |
| 20260830181503 | 84 | 133 | 3.0 | 6.0 | 0.00 | 0.00 | 0.00 | 53 | 1015.8 |
| 20260830181003 | 84 | 136 | 1.0 | 5.0 | 0.00 | 0.00 | 0.00 | 53 | 1015.8 |
| 20260830180503 | 84 | 138 | 3.0 | 6.0 | 0.00 | 0.00 | 0.00 | 53 | 1015.6 |
| 20260830180003 | 84 | 135 | 2.0 | 6.0 | 0.00 | 0.00 | 0.00 | 53 | 1015.6 |
| 20260830175504 | 84 | 141 | 1.0 | 7.0 | 0.00 | 0.00 | 0.00 | 54 | 1015.3 |
| 20260830175003 | 84 | 137 | 1.0 | 8.0 | 0.00 | 0.00 | 0.00 | 54 | 1015.3 |
| 20260830174503 | 84 | 137 | 4.0 | 8.0 | 0.00 | 0.00 | 0.00 | 54 | 1015.1 |
| 20260830174003 | 84 | 145 | 4.0 | 8.0 | 0.00 | 0.00 | 0.00 | 54 | 1015.1 |
| 20260830173504 | 84 | 152 | 3.0 | 8.0 | 0.00 | 0.00 | 0.00 | 53 | 1014.9 |
| 20260830173003 | 84 | 0 | 0.0 | 8.0 | 0.00 | 0.00 | 0.00 | 53 | 1014.9 |
| 20260830172503 | 84 | 163 | 2.0 | 9.0 | 0.00 | 0.00 | 0.00 | 53 | 1014.8 |
| 20260830172003 | 85 | 131 | 4.0 | 9.0 | 0.00 | 0.00 | 0.00 | 53 | 1014.8 |
| 20260830171504 | 85 | 123 | 2.0 | 8.0 | 0.00 | 0.00 | 0.00 | 53 | 1014.8 |
| 20260830171003 | 85 | 152 | 1.0 | 8.0 | 0.00 | 0.00 | 0.00 | 52 | 1014.7 |
| 20260830170503 | 85 | 139 | 1.0 | 8.0 | 0.00 | 0.00 | 0.00 | 52 | 1014.7 |
| 20260830170003 | 85 | 121 | 1.0 | 8.0 | 0.00 | 0.00 | 0.00 | 52 | 1014.5 |
| 20260830165504 | 85 | 125 | 2.0 | 8.0 | 0.00 | 0.00 | 0.00 | 52 | 1014.5 |
| 20260830165003 | 86 | 129 | 4.0 | 7.0 | 0.00 | 0.00 | 0.00 | 52 | 1014.6 |
| 20260830164504 | 86 | 131 | 2.0 | 8.0 | 0.00 | 0.00 | 0.00 | 51 | 1014.5 |
| 20260830164003 | 86 | 130 | 1.0 | 8.0 | 0.00 | 0.00 | 0.00 | 50 | 1014.4 |
| 20260830163504 | 87 | 157 | 2.0 | 8.0 | 0.00 | 0.00 | 0.00 | 48 | 1014.5 |
| 20260830163004 | 87 | 131 | 1.0 | 9.0 | 0.00 | 0.00 | 0.00 | 48 | 1014.5 |
| 20260830162503 | 87 | 122 | 2.0 | 9.0 | 0.00 | 0.00 | 0.00 | 48 | 1014.6 |
| 20260830162003 | 87 | 97 | 1.0 | 11.0 | 0.00 | 0.00 | 0.00 | 48 | 1014.5 |
| 20260830161503 | 87 | 83 | 2.0 | 11.0 | 0.00 | 0.00 | 0.00 | 47 | 1014.4 |
| 20260830161004 | 87 | 139 | 2.0 | 9.0 | 0.00 | 0.00 | 0.00 | 47 | 1014.3 |
| 20260830160504 | 88 | 138 | 2.0 | 10.0 | 0.00 | 0.00 | 0.00 | 46 | 1014.5 |
| 20260830160004 | 88 | 154 | 3.0 | 10.0 | 0.00 | 0.00 | 0.00 | 45 | 1014.4 |
| 20260830155503 | 88 | 270 | 4.0 | 9.0 | 0.00 | 0.00 | 0.00 | 45 | 1014.6 |
| 20260830155003 | 89 | 94 | 4.0 | 9.0 | 0.00 | 0.00 | 0.00 | 42 | 1014.5 |
| 20260830154504 | 90 | 160 | 2.0 | 9.0 | 0.00 | 0.00 | 0.00 | 40 | 1014.3 |
| 20260830154003 | 91 | 206 | 4.0 | 9.0 | 0.00 | 0.00 | 0.00 | 38 | 1014.4 |
| 20260830153504 | 92 | 179 | 1.0 | 9.0 | 0.00 | 0.00 | 0.00 | 35 | 1014.4 |
| 20260830153003 | 92 | 0 | 0.0 | 8.0 | 0.00 | 0.00 | 0.00 | 34 | 1014.3 |
| 20260830152504 | 92 | 119 | 2.0 | 12.0 | 0.00 | 0.00 | 0.00 | 33 | 1014.3 |
| 20260830152003 | 92 | 133 | 3.0 | 12.0 | 0.00 | 0.00 | 0.00 | 33 | 1014.3 |
| 20260830151503 | 93 | 162 | 3.0 | 11.0 | 0.00 | 0.00 | 0.00 | 31 | 1014.4 |
| 20260830151004 | 94 | 272 | 4.0 | 11.0 | 0.00 | 0.00 | 0.00 | 31 | 1014.3 |
| 20260830150503 | 94 | 164 | 3.0 | 8.0 | 0.00 | 0.00 | 0.00 | 31 | 1014.4 |
| 20260830150004 | 94 | 148 | 2.0 | 8.0 | 0.00 | 0.00 | 0.00 | 31 | 1014.4 |
| 20260830145503 | 95 | 165 | 2.0 | 8.0 | 0.00 | 0.00 | 0.00 | 30 | 1014.5 |
| 20260830145003 | 95 | 257 | 2.0 | 7.0 | 0.00 | 0.00 | 0.00 | 31 | 1014.4 |
| 20260830144503 | 96 | 301 | 4.0 | 8.0 | 0.00 | 0.00 | 0.00 | 31 | 1014.6 |
| 20260830144003 | 96 | 89 | 2.0 | 8.0 | 0.00 | 0.00 | 0.00 | 31 | 1014.6 |
| 20260830143504 | 95 | 127 | 1.0 | 10.0 | 0.00 | 0.00 | 0.00 | 32 | 1014.6 |
| 20260830143004 | 95 | 131 | 2.0 | 10.0 | 0.00 | 0.00 | 0.00 | 29 | 1014.6 |
| 20260830142503 | 96 | 136 | 4.0 | 10.0 | 0.00 | 0.00 | 0.00 | 27 | 1014.7 |
| 20260830142004 | 97 | 295 | 3.0 | 10.0 | 0.00 | 0.00 | 0.00 | 28 | 1014.5 |
| 20260830141504 | 97 | 270 | 2.0 | 10.0 | 0.00 | 0.00 | 0.00 | 28 | 1014.6 |
| 20260830141003 | 96 | 250 | 2.0 | 8.0 | 0.00 | 0.00 | 0.00 | 28 | 1014.5 |
| 20260830140503 | 95 | 261 | 3.0 | 8.0 | 0.00 | 0.00 | 0.00 | 30 | 1014.6 |
| 20260830140004 | 95 | 272 | 5.0 | 10.0 | 0.00 | 0.00 | 0.00 | 29 | 1014.6 |
| 20260830135503 | 96 | 270 | 6.0 | 10.0 | 0.00 | 0.00 | 0.00 | 28 | 1014.7 |
| 20260830135003 | 96 | 270 | 4.0 | 8.0 | 0.00 | 0.00 | 0.00 | 28 | 1014.6 |
| 20260830134504 | 96 | 271 | 4.0 | 9.0 | 0.00 | 0.00 | 0.00 | 28 | 1014.7 |
| 20260830134003 | 96 | 264 | 4.0 | 9.0 | 0.00 | 0.00 | 0.00 | 28 | 1014.7 |
| 20260830133503 | 96 | 286 | 3.0 | 8.0 | 0.00 | 0.00 | 0.00 | 29 | 1014.8 |
| 20260830133003 | 96 | 313 | 2.0 | 8.0 | 0.00 | 0.00 | 0.00 | 29 | 1014.8 |
| 20260830132504 | 96 | 233 | 3.0 | 8.0 | 0.00 | 0.00 | 0.00 | 27 | 1014.9 |
| 20260830132003 | 97 | 255 | 2.0 | 8.0 | 0.00 | 0.00 | 0.00 | 28 | 1014.9 |
| 20260830131503 | 97 | 291 | 2.0 | 7.0 | 0.00 | 0.00 | 0.00 | 28 | 1015.0 |
| 20260830131003 | 97 | 54 | 2.0 | 6.0 | 0.00 | 0.00 | 0.00 | 27 | 1015.0 |
| 20260830130504 | 98 | 35 | 3.0 | 6.0 | 0.00 | 0.00 | 0.00 | 26 | 1014.9 |
| 20260830130003 | 98 | 115 | 1.0 | 8.0 | 0.00 | 0.00 | 0.00 | 27 | 1015.0 |
| 20260830125503 | 97 | 205 | 1.0 | 8.0 | 0.00 | 0.00 | 0.00 | 28 | 1015.0 |
| 20260830125003 | 96 | 277 | 1.0 | 9.0 | 0.00 | 0.00 | 0.00 | 28 | 1015.2 |
| 20260830124504 | 97 | 282 | 2.0 | 9.0 | 0.00 | 0.00 | 0.00 | 28 | 1015.2 |
| 20260830124003 | 97 | 109 | 4.0 | 8.0 | 0.00 | 0.00 | 0.00 | 27 | 1015.1 |
| 20260830123503 | 97 | 92 | 3.0 | 7.0 | 0.00 | 0.00 | 0.00 | 27 | 1015.2 |
| 20260830123004 | 97 | 46 | 4.0 | 8.0 | 0.00 | 0.00 | 0.00 | 28 | 1015.3 |
| 20260830122503 | 97 | 243 | 4.0 | 8.0 | 0.00 | 0.00 | 0.00 | 28 | 1015.3 |
| 20260830122003 | 97 | 0 | 0.0 | 8.0 | 0.00 | 0.00 | 0.00 | 28 | 1015.4 |
| 20260830121504 | 97 | 126 | 1.0 | 7.0 | 0.00 | 0.00 | 0.00 | 27 | 1015.4 |
| 20260830121004 | 96 | 309 | 2.0 | 7.0 | 0.00 | 0.00 | 0.00 | 27 | 1015.4 |
| 20260830120504 | 96 | 294 | 2.0 | 11.0 | 0.00 | 0.00 | 0.00 | 28 | 1015.6 |
| 20260830120003 | 96 | 297 | 2.0 | 11.0 | 0.00 | 0.00 | 0.00 | 28 | 1015.7 |
| 20260830115503 | 97 | 205 | 2.0 | 6.0 | 0.00 | 0.00 | 0.00 | 27 | 1015.7 |
| 20260830115003 | 96 | 226 | 2.0 | 9.0 | 0.00 | 0.00 | 0.00 | 27 | 1015.7 |
| 20260830114504 | 96 | 204 | 2.0 | 9.0 | 0.00 | 0.00 | 0.00 | 27 | 1015.7 |
| 20260830114003 | 96 | 111 | 1.0 | 7.0 | 0.00 | 0.00 | 0.00 | 28 | 1015.8 |
| 20260830113503 | 95 | 237 | 2.0 | 7.0 | 0.00 | 0.00 | 0.00 | 29 | 1015.8 |
| 20260830113004 | 95 | 226 | 1.0 | 8.0 | 0.00 | 0.00 | 0.00 | 29 | 1015.9 |
| 20260830112503 | 94 | 136 | 2.0 | 10.0 | 0.00 | 0.00 | 0.00 | 29 | 1015.8 |